Flag for U.S.A. Weather past 2 weeks in Tuscaloosa, Alabama, U.S.A.

Now
49 °F

Sunny.


Feels Like: 45 °F
Forecast: 42 / 57 °F
Wind: 8 mph from Northwest

Location: Tuscaloosa Municipal Airport

Current Time: Mar 27, 2015 at 11:00:56 AM

Latest Report: Mar 27, 2015 at 9:53 AM


Visibility: 10 mi

Pressure: 30.02 "Hg

Humidity: 61%

Dew point: 36 °F

Location of TuscaloosaLocation

Historic Weather in Tuscaloosa — Graph

°F

Tuscaloosa temperature yesterday

Maximum temperature yesterday: 77 °F (at 2:53 PM)
Minimum temperature yesterday: 51 °F (at 10:53 PM)
Average temperature yesterday: 66 °F

Past Weeks' High & Low Weather Summary

 TemperatureHumidityPressure
High84 °F (Mar 17, 3:53 PM)97% (Mar 14, 6:53 AM)30.26 "Hg (Mar 14, 6:53 AM)
Low45 °F (Mar 24, 5:53 AM)28% (Mar 17, 4:53 PM)29.76 "Hg (Mar 26, 5:53 PM)
Average62 °F77%30.07 "Hg
* Reported Mar 12 9:53 AM — Mar 27 9:53 AM, Tuscaloosa, Weather by CustomWeather, © 2015

Note: Actual official high and low records may vary slightly from our data, if they occured in-between our weather recording intervals... More about our weather records

Advertising

Tuscaloosa weather history for previous 24 hours

 ConditionsComfort  
Time TempWeatherWind HumidityBarometerVisibility
9:53 AM
Fri, Mar 27
49 °FSunny.8 mph61%30.02 "Hg10 mi
8:53 AM45 °FOvercast.13 mph71%30.02 "Hg10 mi
7:53 AM46 °FOvercast.10 mph68%30.00 "Hg10 mi
6:53 AM46 °FOvercast.9 mph77%29.97 "Hg10 mi
5:53 AM46 °FOvercast.13 mph73%29.94 "Hg10 mi
4:53 AM47 °FMostly cloudy.13 mph77%29.93 "Hg10 mi
3:53 AM47 °FMostly cloudy.10 mph83%29.92 "Hg10 mi
2:53 AM47 °FOvercast.12 mph86%29.93 "Hg10 mi
1:53 AM48 °FLight rain. Mostly cloudy.13 mph86%29.92 "Hg10 mi
12:53 AM50 °FMostly cloudy.9 mph86%29.93 "Hg10 mi
12:00 AM50 °FLight rain. Mostly cloudy.9 mph86%29.92 "Hg10 mi
10:53 PM
Thu, Mar 26
51 °FLight rain. Mostly cloudy.10 mph89%29.92 "Hg10 mi
9:53 PM57 °FMostly cloudy.13 mph69%29.88 "Hg10 mi
8:53 PM59 °FMostly cloudy.17 mph72%29.86 "Hg10 mi
7:53 PM65 °FScattered clouds.17 mph68%29.83 "Hg10 mi
6:53 PM71 °FSunny.7 mph61%29.78 "Hg10 mi
5:53 PM73 °FMostly cloudy.3 mph55%29.76 "Hg10 mi
4:53 PM75 °FPartly sunny.3 mph50%29.77 "Hg10 mi
3:53 PM76 °FPassing clouds.10 mph48%29.79 "Hg10 mi
2:53 PM77 °FPartly sunny.7 mph50%29.80 "Hg10 mi
1:53 PM76 °FScattered clouds.6 mph52%29.82 "Hg10 mi
12:53 PM74 °FScattered clouds.9 mph57%29.85 "Hg10 mi
11:53 AM72 °FPassing clouds.8 mph66%29.90 "Hg10 mi
Weather by CustomWeather, © 2015

See weather overviewHow to use our weather pages